CAPE
2353 2548 2494 2336 1735 1650 1736 1715 2126 1791 1713 1690 1218 1058 1453 2009 1844 1440 1679 1862 1946 2056 1964 1819 1652 1430 1134 1002 1083 929 1046 1310 1168 1111 1120 1280 1494 1161 1663 2268 2635 3236 3388 2886 2258 1856 2263 2107 2107 1945 1822 1771 1759 1719 1635 1630 1596 1598 1612 1602 1558 1614 1575 1600 1708 1610 1547 1559 1444 1380 1356 1343 1514 1660 1613 1486 1512 1466 1402 1347 1425 1430 1582 1584 1583
2253 2311 2095 1617 1480 1462 1653 1930 2161 2022 1820 1611 1450 1275 1669 1805 1880 1835 1987 2265 2326 1764 2103 1787 1694 1936 1554 1272 1152 1262 1114 1207 1119 1182 1417 1281 1078 1694 1997 2363 2742 2998 3129 3126 2471 2188 2195 2263 2315 2230 1983 1912 1844 1810 1780 1754 1690 1740 1683 1628 1622 1661 1695 1672 1740 1813 1684 1606 1614 1578 1529 1521 1536 1815 1992 1951 1830 1715 1658 1606 1546 1577 1694 1757 1784
2096 1856 1697 1189 1566 1314 1677 1958 2027 2268 2148 1864 2075 1732 1796 1709 1688 1716 1912 1936 1668 1399 1628 1448 1515 1518 1635 1348 1027 1030 878 924 1025 1231 1433 1286 1100 1417 2251 2900 3030 3172 3014 3072 2913 2332 2397 2395 2461 2463 2238 2038 2000 1974 1896 1914 1879 1871 1860 1778 1668 1659 1731 1765 1740 1836 1844 1816 1829 1822 1790 1739 1701 1811 2018 2135 2056 2020 1913 1857 1800 1906 2020 1936 1897
2296 2088 1582 1841 1905 1682 2117 2135 2065 2210 2341 2232 1964 2301 2274 2285 2177 1725 1572 1485 1346 1160 1199 1320 1316 1190 1206 1516 1478 1303 1086 883 913 1060 1202 1144 1068 1015 1088 2120 3224 3486 3412 3025 2752 3047 2432 2583 2500 2534 2564 2362 2152 2158 2136 2101 2106 2072 2042 1958 1836 1714 1677 1802 1753 1815 1803 1864 1944 1990 2012 1986 1960 1899 1954 2106 2200 2033 2026 1933 1943 2155 2132 2078 2018
2880 2574 2745 1921 1735 1742 1964 2253 2174 2234 2281 2174 2125 1813 1687 1602 1200 1893 1618 1523 1434 1257 1340 1409 1225 1031 1024 1158 1374 1382 1225 1182 1222 1061 1063 1402 1082 1206 1289 1453 2267 3601 3677 3363 2955 3239 3026 2658 2747 2684 2754 2638 2415 2246 2183 2227 2196 2181 2133 2044 1986 1834 1708 1786 1805 1803 1880 1892 1916 2003 2050 2080 2023 1997 1955 1962 2027 2023 2032 2002 2017 2143 2136 2169 2210
3052 3316 2907 2422 2181 2253 2445 2466 2444 2380 2220 2112 2018 1860 1631 1334 1325 1238 1955 1944 1573 1491 1288 1402 1587 1492 1341 1121 1082 966 999 1131 1363 1658 1574 1516 1670 1729 1629 1505 1594 2188 3330 3639 3391 3270 3248 2851 2846 2805 2888 2854 2792 2506 2291 2254 2271 2185 2144 2151 2081 1925 1808 1821 1929 1874 2016 2042 1906 1933 2026 2124 2136 2162 2240 2202 2234 2166 2212 2231 2252 2229 2271 2301 2273
3097 3458 3179 2753 2670 2695 2675 2600 2394 2190 2027 1778 1789 1842 1773 1607 1544 1427 1128 1149 1166 933 786 630 803 1090 1168 1102 1003 1222 1362 1341 1380 1453 1495 1309 1533 1690 1850 1662 1722 1971 2402 2855 3074 3311 3409 3234 2912 2974 2998 3011 2988 2910 2510 2321 2289 2310 2265 2193 2127 2014 1994 1925 2006 2096 2172 2122 2013 2003 1952 2045 2190 2263 2440 2513 2541 2549 2389 2409 2454 2525 2578 2527 2477
3559 3463 3315 3121 2868 2703 2528 2314 2188 2195 2042 1894 1947 1951 1902 1607 1368 1314 1181 1079 1057 1126 1150 1184 1145 1081 1110 1068 808 940 1160 1579 1924 1944 1812 1612 1564 1607 1627 1898 1631 1737 2419 2404 2586 2831 3374 3404 3354 3225 3104 3086 3049 3100 3026 2571 2408 2349 2360 2348 2369 2242 2275 2324 2287 2286 2281 2204 2164 2204 2087 2080 2168 2227 2398 2437 2488 2633 2543 2485 2571 2635 2633 2628 2601
3085 3168 3189 3107 2911 2682 2516 2410 2406 2382 2322 2206 2064 1837 1606 1295 1104 1254 1296 1257 1265 1119 954 813 703 550 644 763 719 558 367 1102 1362 1521 1617 1635 1508 1759 1725 1956 1902 2264 1979 2182 2471 2539 2856 3383 3556 3390 3415 3302 3258 3186 3091 2942 2714 2473 2434 2397 2274 2416 2464 2505 2388 2386 2382 2304 2292 2331 2345 2331 2366 2322 2308 2492 2627 2745 2766 2677 2628 2708 2759 2733 2745
2525 2312 2416 2686 2607 2343 2231 2367 2259 2144 2070 1864 1646 1496 1340 1241 1140 1129 1196 1118 999 882 822 718 700 672 614 367 186 20 314 334 434 1245 1370 1361 1272 1390 1627 1895 2266 2062 1811 1717 1932 2349 2605 3043 3608 3534 3696 3501 3366 3344 3272 3165 2864 2688 2660 2491 2323 2354 2470 2487 2468 2368 2344 2336 2392 2470 2543 2544 2576 2659 2687 2751 2709 2890 2878 2862 2808 2863 2823 2737 2704
2208 2155 2200 2334 2391 2358 2402 2000 1680 1675 1578 1400 1189 1051 1029 918 879 845 754 1022 1015 964 895 788 740 681 508 348 304 304 210 418 912 1091 1707 1572 1422 1379 1366 1676 2272 2206 1973 1796 1552 1559 1903 2299 2975 3326 3294 3713 3601 3447 3277 3154 3054 2860 2802 2714 2566 2432 2465 2502 2554 2434 2330 2352 2354 2406 2494 2532 2575 2684 2765 2742 2838 2822 2802 2875 2896 2828 2852 2776 2717
2382 2294 2227 2267 2080 1752 1580 1660 1712 1632 1407 1090 906 850 811 778 863 954 868 726 848 773 595 600 456 191 215 190 148 143 147 175 107 203 622 1150 1401 1353 1294 1474 1860 2119 2153 2008 1797 1558 1406 1624 2204 2754 3142 3324 3656 3641 3516 3316 3222 3170 2908 2884 2798 2699 2641 2578 2537 2535 2412 2442 2372 2339 2390 2461 2548 2586 2661 2741 2754 2698 2710 2759 2788 2761 2794 2793 2710
2694 2404 2163 2325 2020 1707 1433 1312 1322 1325 1176 957 822 781 744 680 584 722 852 817 415 178 168 205 172 99 108 168 196 172 205 224 131 46 4 9 446 1172 1353 1271 1405 1665 1662 1441 1846 1841 1638 1566 1732 2083 2705 2967 3073 3576 3680 3471 3281 3112 3120 2989 2939 2902 2822 2796 2720 2651 2546 2538 2552 2380 2294 2304 2350 2476 2500 2524 2528 2554 2528 2512 2530 2624 2687 2731 2728
2569 2286 2214 2105 2044 1846 1612 1387 1228 1188 1146 1054 961 868 818 837 759 626 500 497 396 285 276 337 315 394 229 118 92 149 321 466 459 454 158 165 438 102 555 932 1062 1160 1131 1056 1174 1270 1471 1466 1420 1644 1969 2624 2923 3024 3282 3237 2973 3169 3106 3151 3089 3006 2978 2946 2924 2868 2754 2651 2707 2551 2422 2267 2201 2277 2372 2390 2399 2399 2379 2367 2369 2410 2514 2631 2676
2660 2572 2425 2363 2222 2051 1820 1658 1518 1424 1351 1244 1124 1030 996 994 888 696 525 468 529 455 465 460 457 333 89 82 138 128 232 582 851 881 840 787 710 667 641 924 1117 1180 1199 1176 1038 1026 1212 1232 1213 1448 1656 1723 2384 2830 3165 3472 3316 3450 3135 2887 3027 3173 3064 3039 3106 3028 3009 2927 2823 2810 2587 2360 2298 2271 2301 2312 2301 2279 2303 2299 2281 2262 2278 2400 2453
2707 2562 2507 2344 2064 2025 1962 1417 1568 1472 1372 1342 1309 1332 1083 980 1102 787 539 473 437 473 896 655 481 445 341 138 142 136 143 148 193 193 318 629 908 975 1058 964 910 836 798 913 871 730 594 916 1223 1145 1233 1360 1272 1087 1820 2564 3186 3460 2989 3258 2853 2815 3200 3079 3040 3161 3158 3162 3101 2963 2707 2432 2291 2292 2402 2363 2346 2325 2244 2262 2262 2233 2193 2241 2281
523 992 1337 999 1428 1613 1550 1596 1560 1623 1738 1720 1718 1445 1081 1000 954 890 792 679 598 655 795 793 670 554 519 374 214 145 168 150 232 180 167 348 483 676 585 468 672 655 700 873 908 900 844 770 647 866 1193 1145 1122 1179 1158 1307 2130 2710 3075 3036 3043 2783 2710 3169 3150 3090 3147 3265 3253 3084 2822 2514 2313 2246 2432 2523 2410 2375 2320 2233 2228 2215 2196 2157 2177
503 1056 877 1007 1056 1119 1254 1179 1469 1320 1643 1882 2038 1219 1064 886 767 734 883 882 841 734 546 476 691 941 778 641 393 176 129 121 174 374 132 99 109 257 1391 1304 1070 823 707 750 914 769 810 695 667 696 687 841 933 1147 1199 1295 1482 1894 2484 2783 3008 3232 2738 2666 3073 2680 3148 3144 3238 3359 3044 2663 2394 2260 2350 2593 2659 2421 2408 2287 2200 2182 2179 2173 2168
609 664 764 888 1011 964 926 1004 1134 963 1690 1254 1474 1197 1022 844 755 728 1041 1177 973 688 475 453 671 794 480 610 376 474 268 308 354 280 224 120 843 250 160 209 591 1125 969 765 762 680 669 719 737 867 947 940 1054 1074 1048 1193 1309 1586 2009 2569 2566 2720 2908 2847 2654 3036 2799 2757 3073 3245 3378 3042 2509 2258 2180 2194 2669 2720 2379 2389 2245 2190 2138 2116 2115
338 850 773 608 709 836 439 670 869 1042 677 552 1042 1453 1236 1252 1127 1122 1318 1342 1199 957 869 808 547 396 561 497 441 611 202 167 121 324 347 317 300 239 187 212 392 963 1013 973 932 874 775 673 580 814 1003 889 818 836 824 967 1178 1296 1577 1947 2146 2165 2457 2617 2919 2817 3047 2989 2705 3303 3341 3345 3070 2479 2172 1969 2519 2725 2557 2401 2377 2244 2168 2151 2122
825 395 732 420 761 569 421 633 440 651 669 513 364 622 691 1257 1436 1633 1557 1281 1329 1205 1042 741 525 426 317 254 332 393 437 370 343 290 223 149 184 205 176 122 140 214 301 872 1187 1040 1011 866 773 954 1073 939 794 779 806 970 1086 1120 1126 1226 1710 1868 2023 2235 2432 2418 2972 3070 3081 3402 3354 3315 3332 3136 2768 2510 2580 2688 2782 2523 2552 2467 2332 2191 2307
380 670 464 478 566 689 465 494 376 696 906 413 274 191 131 192 660 1045 1064 948 1027 1175 1051 762 594 498 384 457 508 326 253 196 242 245 226 173 177 242 204 149 111 145 161 132 128 859 1490 1454 1390 1341 1316 1177 964 784 763 902 997 1157 1117 1318 1238 1356 1597 1948 2182 2095 1993 2513 2983 3292 2945 3414 3306 3243 3135 2975 2818 2828 2889 2982 2830 2808 2676 2649 2581
800 569 598 502 642 680 361 499 578 922 734 330 323 354 269 289 338 390 404 426 477 799 1048 876 897 705 553 617 501 350 284 184 183 238 280 282 206 131 127 183 219 168 182 136 202 171 257 1249 1560 1277 1202 1323 1197 989 840 763 848 1230 1542 1450 1382 1339 1377 1468 1956 2040 2025 2046 2684 2901 3166 3475 3448 3376 3250 3143 3140 3072 3015 3054 3145 3025 2800 2835 2911
262 148 186 607 944 433 635 519 551 385 599 320 499 439 489 376 425 431 417 299 514 442 460 554 740 474 448 538 429 290 200 205 212 235 298 294 220 178 178 142 144 141 85 77 65 61 71 163 1068 1565 1444 1200 1096 1016 949 1025 1022 1288 1380 1279 1053 1021 1059 1101 1265 1784 1922 1833 2099 2444 2753 2857 3320 3380 3384 3306 3217 3280 3263 3194 3199 3171 3079 2907 2628
240 533 440 595 519 347 602 380 603 664 501 377 418 447 388 391 450 412 281 268 274 423 321 384 422 458 408 354 229 105 89 140 178 197 221 210 186 144 102 118 123 108 73 33 67 89 93 142 505 1412 1463 1290 1020 902 888 868 767 1100 1542 1240 993 783 722 744 659 878 1307 1710 1767 1838 2336 2332 2497 2777 2992 3164 3228 3305 3358 3415 3360 2890 2842 3016 2530
460 586 464 335 470 622 670 613 559 604 654 397 427 422 373 405 334 249 250 145 417 306 234 451 282 341 386 235 132 150 124 107 136 198 263 234 205 154 143 157 110 48 42 38 49 68 116 191 305 728 1193 1237 1062 873 694 671 737 1052 1340 1052 704 636 604 639 703 724 823 1097 1422 1483 1534 2063 2076 2280 2531 2786 2915 2963 3030 3090 3212 3418 2922 2532 2569
296 476 345 282 367 567 641 510 555 493 640 570 589 451 532 623 576 473 481 399 458 305 248 385 190 213 193 146 213 262 139 112 143 155 218 285 266 263 285 170 79 52 27 14 5 22 49 53 84 130 569 871 946 900 752 579 617 888 1236 1130 783 653 508 482 512 575 742 925 991 1023 1025 1182 1626 1968 2031 2223 2546 2774 2875 2831 2855 2927 3009 2855 2570
435 233 182 301 599 341 525 377 470 521 383 358 365 434 378 414 421 534 437 772 381 268 286 186 237 180 123 184 259 224 189 135 124 145 148 137 188 230 221 185 123 14 12 0 0 0 10 34 52 69 124 389 753 846 930 1005 690 878 1266 963 780 791 684 569 598 698 788 908 902 1018 1103 1126 1226 1457 1771 1756 1851 2130 2457 2617 2586 2586 2677 2738 2706
96 308 414 408 88 192 184 344 455 493 407 371 412 443 384 481 501 336 332 451 444 176 273 264 194 187 258 247 211 203 102 150 145 131 114 135 133 134 153 182 122 67 16 9 1 20 14 4 4 23 110 341 577 669 646 671 728 855 612 713 763 721 768 687 618 688 806 825 758 758 1127 1347 1537 1704 1703 1512 1387 1481 1701 2001 2236 2326 2373 2446 2470
320 209 52 14 223 1094 588 444 484 554 458 351 351 272 299 328 414 483 429 406 273 363 453 421 351 343 463 353 214 140 159 149 129 128 124 80 57 28 14 22 92 98 61 27 9 4 8 14 22 19 28 23 44 133 322 452 660 960 880 774 879 952 892 842 786 700 628 559 580 586 898 1358 1694 1709 1591 1466 1324 1281 1243 1433 1673 1884 2015 2100 2210
75 127 274 283 178 276 428 420 277 298 527 664 577 530 424 378 528 546 631 617 422 319 355 585 602 412 290 161 128 157 164 138 116 137 62 30 7 2 0 0 14 27 18 22 11 0 2 1 0 1 4 1 1 13 155 466 676 839 839 915 1035 1232 1272 1189 1114 1013 840 616 426 606 936 1216 1348 1432 1453 1355 1248 1284 1215 1149 1275 1417 1552 1680 1841
204 177 30 2 133 114 91 90 69 129 177 336 401 415 422 388 364 520 714 778 672 604 581 614 568 321 273 130 155 127 137 128 131 44 19 15 15 0 0 0 0 0 6 15 11 2 0 0 0 0 0 2 5 3 5 12 33 256 759 934 936 1207 1348 1286 1249 1200 1069 906 752 618 703 838 977 1123 1252 1272 1146 1089 1188 1145 1084 1078 1127 1234 1356
81 16 12 94 104 97 173 271 211 228 427 464 618 653 548 504 651 703 699 714 690 642 614 659 617 383 285 162 150 95 106 144 47 20 12 0 0 0 0 0 0 0 1 10 5 1 0 0 0 0 0 0 0 5 28 31 28 16 52 408 1167 1364 1382 1367 1309 1267 1208 1092 938 781 725 727 762 830 922 989 959 900 955 1087 1110 1030 926 954 1041
172 47 50 117 256 338 250 209 298 396 401 413 312 465 524 604 609 552 459 489 583 598 518 529 639 323 240 147 103 96 114 68 26 15 0 0 0 0 0 0 0 0 0 2 2 4 0 0 0 0 0 0 3 0 51 86 73 52 26 47 419 1358 1521 1410 1284 1182 1109 1055 942 816 656 579 616 638 615 565 545 626 845 1057 1083 1046 944 829 848
147 90 110 161 215 201 197 182 149 215 268 294 478 636 528 480 439 439 580 691 771 766 631 569 512 310 282 207 118 61 142 60 35 0 1 0 0 0 0 0 0 0 0 0 0 1 0 0 0 0 0 0 3 3 2 28 75 76 27 37 242 911 1315 1462 1417 1236 1030 891 801 745 697 656 649 639 561 450 440 525 708 914 971 970 924 772 388
48 284 215 175 181 210 204 277 248 224 283 369 519 608 573 603 520 407 423 397 507 540 465 503 533 369 295 208 91 108 142 41 4 0 0 0 0 0 0 0 0 0 0 0 0 0 0 0 0 0 0 1 1 2 6 40 59 86 84 35 19 192 815 1196 1240 1194 978 761 604 486 420 404 460 556 543 482 156 482 583 727 800 798 739 628 0
7 8 242 286 232 251 235 185 196 268 299 360 495 766 826 756 678 586 506 400 317 304 416 523 559 440 321 246 100 98 134 33 18 0 0 0 0 1 0 0 0 0 0 0 0 0 0 0 0 0 0 0 1 2 6 37 76 170 178 128 51 50 202 638 882 931 902 791 659 548 451 95 0 0 180 294 0 501 590 668 692 698 698 644 608
107 84 0 34 121 14 44 176 276 186 160 272 510 788 880 915 883 771 659 575 566 661 707 621 530 438 338 307 267 135 100 48 22 3 0 0 2 6 0 0 0 0 0 0 0 0 0 0 0 1 0 0 3 7 6 36 130 153 182 178 164 147 293 603 737 776 756 683 612 559 554 534 470 92 568 611 619 522 483 589 744 808 811 798 783
2 0 0 0 0 12 238 418 279 194 142 197 259 580 851 879 839 790 728 708 716 773 767 666 578 512 437 359 283 147 103 76 62 27 7 9 30 10 22 0 0 0 0 0 0 0 0 0 0 0 4 0 12 25 3 18 76 89 88 140 156 208 312 490 633 720 727 649 580 475 368 332 386 541 710 818 801 680 474 0 665 878 910 888 805
3 4 1 0 0 111 74 23 2 10 6 23 60 466 859 984 1051 1041 1004 935 825 748 737 672 581 531 468 401 327 240 144 127 82 15 3 3 40 17 0 0 0 2 29 0 0 0 0 0 0 0 2 6 2 12 12 14 34 44 73 89 126 170 300 550 601 596 596 626 638 682 637 564 538 643 748 770 736 659 663 784 966 1041 1036 952 784
172 31 21 34 44 58 49 18 8 40 281 401 543 938 1062 1317 1411 1340 1188 994 884 802 562 444 493 529 511 443 390 352 298 436 179 108 28 8 212 135 0 0 11 171 148 66 0 0 0 0 0 0 11 12 3 10 13 13 22 42 58 112 101 186 231 372 711 755 632 517 492 554 709 723 713 738 784 772 758 829 873 960 1232 1385 1265 1019 798
192 366 295 200 274 143 22 21 226 253 36 366 740 730 1378 1467 1485 1373 1210 1098 965 673 501 552 646 650 546 352 393 814 595 459 384 271 238 314 340 285 90 86 229 304 156 35 0 0 0 3 1 8 21 23 8 3 12 5 12 18 30 39 36 134 203 208 308 795 877 719 559 528 606 855 928 826 733 644 667 826 1124 1303 1392 1463 1335 1156 1033
338 310 438 329 103 21 9 9 1 1 121 757 364 240 345 755 922 962 999 937 793 662 745 817 753 607 430 226 200 457 684 579 690 525 388 373 418 454 400 384 342 372 172 43 0 0 16 13 10 18 30 27 3 1 4 2 15 12 5 28 81 102 130 141 185 369 947 998 742 714 691 768 1029 960 854 754 698 767 1194 1374 1355 1312 1288 1327 1305
457 497 467 375 205 204 129 19 7 81 432 510 286 132 134 140 230 442 514 691 855 942 857 672 583 511 495 423 340 454 553 554 498 453 375 293 262 331 490 498 410 406 172 13 44 14 9 17 23 21 28 5 3 1 0 7 8 5 3 11 38 39 93 123 121 196 466 1029 1101 978 870 918 1249 1279 1166 1040 952 947 1057 1223 1404 1446 1446 1294 1200
589 607 606 566 506 266 281 216 240 173 113 258 232 42 1 5 18 110 310 482 646 694 662 634 692 714 621 445 434 550 534 622 643 415 324 258 382 406 514 542 498 484 257 0 0 21 2 16 34 31 8 6 16 5 2 9 14 18 16 20 19 37 43 36 87 156 420 925 972 952 885 850 1060 1368 1442 1380 1251 1127 1046 1080 1130 1188 1128 976 864
655 635 599 417 126 87 27 25 184 411 438 343 239 208 174 124 0 6 78 158 364 478 567 646 726 775 723 570 493 360 88 227 317 290 82 30 73 351 467 531 505 360 209 0 0 0 9 26 46 59 4 18 35 4 7 0 10 15 12 12 7 24 41 38 136 192 261 1134 893 865 840 802 925 1078 1180 1296 1416 1412 1269 1098 1027 968 903 794 708
653 626 445 392 315 252 350 565 583 652 670 556 428 0 0 0 0 0 3 104 289 422 535 680 838 906 881 705 520 422 15 7 24 86 47 34 264 404 497 508 420 293 28 2 0 0 28 34 45 48 29 12 6 0 4 0 0 2 4 5 4 9 23 78 168 208 219 925 892 867 620 744 970 1124 1139 1160 1149 1341 1542 1481 1349 1163 977 751 564
816 696 545 595 518 244 219 527 549 418 425 182 0 12 46 43 0 0 0 8 53 183 380 590 832 990 934 730 637 565 224 4 24 2 43 244 372 480 497 464 305 5 0 2 7 5 36 54 38 18 4 9 1 3 1 0 2 1 7 8 8 11 12 26 60 182 201 430 1063 713 424 479 902 1113 1210 1204 1157 1153 1322 1594 1695 1591 1358 1064 752
709 519 463 319 346 97 123 384 464 86 80 0 0 0 4 20 0 0 0 38 190 440 705 983 1115 1087 967 845 841 691 486 420 273 166 216 392 484 500 299 1 0 0 0 1 16 53 43 0 0 0 2 1 0 2 1 0 0 1 1 4 14 25 39 21 26 79 174 264 514 608 479 368 706 1075 1142 1190 1251 1244 1281 1508 1741 1884 1873 1715 1493
536 507 508 482 402 140 192 184 62 0 0 0 0 0 0 0 0 34 108 142 176 294 531 741 903 976 988 1333 1192 975 814 662 373 228 388 417 96 0 0 0 0 0 2 24 28 24 1 0 0 1 1 0 1 8 2 2 0 2 1 1 0 0 6 27 56 62 109 212 332 310 301 248 520 993 1060 1068 1136 1179 1220 1328 1590 1887 2046 2094 2009
466 403 426 313 179 133 111 0 102 0 0 11 0 0 0 0 0 0 7 74 300 420 634 918 1062 1077 977 932 970 914 882 677 422 411 354 0 0 0 0 0 0 1 19 12 34 8 0 6 8 6 3 2 12 19 19 35 0 0 0 1 0 0 0 10 103 115 98 74 109 353 290 298 345 589 1067 1017 979 1047 1130 1137 1186 1571 1908 2138 2241
Wind_Speed
18 17 18 18 17 16 16 15 15 17 18 16 15 15 15 16 17 18 17 17 16 17 18 17 19 20 19 18 18 17 17 18 17 17 16 14 13 10 7 9 8 8 10 11 9 8 10 10 10 11 10 10 10 11 10 10 10 10 10 11 11 11 11 12 13 13 13 13 13 13 13 14 14 14 15 15 15 15 15 15 14 13 12 11 10
16 16 19 19 18 18 18 17 17 18 18 16 15 16 16 17 18 18 18 17 15 15 18 17 19 20 20 18 17 17 18 18 16 15 17 16 11 10 10 11 10 8 8 9 10 10 9 9 10 10 11 11 10 10 11 11 10 10 10 10 11 12 11 11 12 12 13 13 13 13 13 13 14 15 15 15 15 15 15 15 15 14 13 12 10
16 18 19 20 20 20 20 19 18 17 16 16 16 18 18 18 19 18 17 16 14 14 16 17 17 17 18 18 16 18 18 18 17 15 16 16 13 9 8 11 11 9 8 8 9 10 10 9 9 10 10 11 11 10 10 11 11 10 10 10 11 11 11 11 11 12 12 12 12 12 12 12 13 14 15 15 15 16 16 16 16 15 14 12 11
17 18 20 20 21 21 20 20 19 18 18 18 16 16 17 17 17 17 16 14 12 12 15 17 15 13 14 15 16 15 16 18 18 16 15 17 14 10 9 8 10 12 11 10 9 9 11 10 9 9 10 10 11 11 10 10 11 11 10 9 10 10 11 11 11 11 12 12 12 12 11 11 12 13 14 15 15 15 15 16 16 15 14 13 12
18 20 19 19 19 18 19 19 20 20 20 18 16 15 15 14 14 15 14 14 12 11 12 15 15 13 12 12 14 14 14 16 17 18 17 16 14 13 12 10 10 11 14 14 12 10 9 10 9 9 9 10 10 10 10 10 10 10 10 10 9 9 10 10 10 11 11 11 11 11 11 11 11 12 13 14 14 14 14 15 16 16 15 14 13
18 18 19 19 19 19 19 18 19 21 20 19 18 16 15 15 14 12 14 15 15 13 13 13 14 14 14 14 15 15 15 14 16 17 17 16 16 16 16 15 12 11 13 15 15 13 10 10 10 10 10 9 9 10 9 10 11 10 10 10 9 8 9 10 10 10 9 9 11 11 11 11 11 11 11 12 12 13 13 14 15 16 15 15 14
17 19 20 20 19 19 19 19 18 20 20 20 21 20 20 19 19 18 16 15 15 15 14 14 13 14 14 15 14 16 17 16 16 15 15 16 18 17 18 19 16 15 14 16 15 15 12 10 10 11 11 10 9 9 9 9 10 11 11 10 10 9 8 8 9 8 8 9 10 10 10 11 11 11 11 12 12 12 13 13 14 15 14 14 15
16 17 18 19 19 19 19 19 19 19 20 20 20 19 19 18 18 20 20 19 19 18 18 17 16 15 14 13 14 14 15 16 18 17 16 17 19 19 18 20 19 18 17 17 17 17 14 12 9 8 11 12 11 9 9 9 9 10 11 11 10 9 9 8 7 7 7 8 8 9 10 10 10 11 10 11 12 11 12 12 13 13 13 14 15
15 15 17 18 18 18 19 19 19 19 20 20 20 20 20 19 19 19 21 20 21 21 20 18 16 17 16 16 15 15 14 13 15 17 19 19 21 21 19 20 20 19 20 19 18 18 15 13 11 8 8 10 12 11 10 9 9 9 10 11 11 10 10 9 8 7 6 6 6 7 8 9 10 10 11 11 11 10 10 11 12 11 11 12 13
14 15 16 17 18 18 18 19 20 21 21 21 21 20 19 19 18 19 19 19 19 20 20 20 19 18 18 17 15 nan 13 12 12 13 17 20 23 23 23 22 21 21 22 21 21 20 19 14 11 10 9 10 11 12 12 11 9 8 8 9 11 11 9 9 9 8 7 6 5 5 6 7 7 8 8 9 10 8 8 8 9 9 9 10 11
14 15 16 17 17 18 19 19 20 21 21 21 20 19 20 19 19 19 20 20 20 20 21 22 21 21 19 17 17 15 14 13 12 13 14 16 19 22 23 24 25 24 23 24 24 23 21 20 19 19 16 9 9 10 12 12 11 9 8 8 9 11 11 9 9 8 7 7 6 5 5 5 6 7 7 8 8 7 8 8 8 9 9 9 10
15 16 17 18 18 19 19 20 21 22 21 20 20 20 21 22 22 23 22 22 23 24 23 22 22 21 20 19 19 17 16 17 15 14 14 15 16 18 20 23 26 27 26 26 26 26 25 23 21 19 19 16 10 10 10 11 11 11 9 9 8 9 10 11 10 9 7 6 6 6 5 5 5 6 7 7 6 6 6 6 7 8 8 8 9
15 16 17 18 19 20 20 20 22 22 22 21 21 22 22 23 23 24 24 24 25 26 25 24 21 nan 21 20 19 21 18 18 18 nan nan nan 18 18 19 20 23 25 29 33 33 31 29 26 24 22 20 22 20 12 10 10 11 11 11 9 9 8 9 10 11 10 9 7 5 4 4 5 5 6 6 6 6 5 5 5 6 6 7 8 8
16 17 18 19 19 21 21 21 21 22 23 23 23 23 22 22 23 23 26 26 26 28 27 28 24 23 18 17 nan 21 20 20 18 19 20 20 20 20 20 20 20 26 33 33 31 27 26 27 27 25 23 22 22 24 21 16 14 10 12 10 9 8 8 8 9 10 9 8 6 4 3 3 4 5 6 6 6 5 4 4 4 5 6 7 7
18 19 20 21 22 22 23 22 21 22 21 22 22 23 23 22 23 25 23 25 26 26 26 29 26 24 nan nan 17 17 22 23 22 22 21 22 24 23 21 22 23 28 30 35 29 28 29 30 30 29 28 25 24 24 25 23 21 15 13 12 11 8 7 8 9 9 9 9 7 5 3 3 3 3 3 4 4 4 3 3 3 3 4 5 5
21 23 23 21 22 24 23 26 26 23 22 20 20 21 20 22 24 24 25 23 26 26 28 29 28 26 20 23 20 21 16 22 22 21 23 21 22 24 34 34 29 27 30 28 27 29 30 31 30 30 31 30 28 25 23 26 20 16 12 14 13 12 9 6 7 8 9 9 8 6 4 3 3 3 2 2 2 2 2 2 2 2 2 3 4
23 22 24 25 26 26 25 25 24 25 25 23 22 24 22 22 24 26 27 28 27 27 27 28 31 32 29 25 21 21 22 19 20 19 24 26 24 25 29 29 29 28 27 25 27 28 29 31 34 35 31 31 29 26 27 28 29 28 24 18 15 15 13 10 7 7 8 9 10 8 6 4 3 3 2 2 1 1 1 1 1 1 1 2 2
25 27 27 28 27 26 26 25 25 24 25 24 25 25 25 25 27 28 27 28 28 28 27 27 28 30 32 31 29 26 21 20 21 18 21 nan 20 22 27 30 31 31 30 28 27 28 29 30 33 33 33 32 30 29 30 29 29 30 30 28 20 18 16 12 10 8 8 9 10 11 9 7 5 3 3 4 3 1 1 0 1 1 1 1 1
25 26 30 29 29 30 29 28 28 26 27 26 26 27 26 27 29 30 30 31 31 30 29 28 28 31 34 31 28 25 24 22 21 20 17 22 27 27 24 22 24 30 32 31 28 28 28 30 31 31 32 31 31 32 32 31 30 28 26 25 23 21 18 16 13 11 9 9 9 10 11 9 8 6 5 4 5 3 1 1 1 1 1 1 1
25 25 29 30 30 31 29 28 29 29 30 28 29 30 29 29 31 33 33 33 33 33 31 31 31 30 31 31 33 33 34 31 26 22 17 18 16 25 26 22 23 25 29 30 30 29 27 28 28 30 31 30 33 33 32 32 32 31 31 25 25 21 21 20 16 14 13 11 10 11 11 11 10 9 7 5 6 5 3 2 2 3 3 2 2
25 24 27 30 31 32 31 30 31 31 31 30 29 30 30 30 32 33 34 34 35 34 34 33 33 33 31 32 32 32 32 32 29 30 26 21 18 18 20 24 24 23 26 30 30 30 30 28 28 29 31 31 33 33 34 34 33 33 32 26 26 25 22 20 18 16 16 14 13 12 12 11 10 10 10 9 9 7 6 4 4 3 4 3 4
23 24 25 26 29 32 32 32 33 32 32 33 33 32 31 32 33 34 36 36 36 37 36 35 35 34 34 33 33 33 33 33 32 29 28 28 22 21 20 20 21 25 27 26 29 32 31 30 29 30 32 34 35 35 35 34 35 35 33 26 24 24 22 22 21 13 15 17 16 14 13 13 12 10 10 10 9 9 8 7 7 6 5 5 4
25 25 25 27 33 33 33 33 34 33 33 35 34 35 35 35 34 35 35 35 36 38 38 37 36 36 34 34 34 35 35 33 31 30 30 27 25 24 24 23 21 20 26 28 28 28 30 31 31 30 30 33 35 38 37 36 32 33 33 30 26 25 23 22 20 18 17 14 16 16 15 15 14 13 11 11 11 10 9 9 8 8 6 6 6
27 26 25 29 32 32 32 33 33 34 35 35 35 36 37 37 37 37 38 38 40 40 39 37 37 37 36 36 35 36 36 35 33 32 31 29 28 24 26 28 25 26 nan nan nan nan nan 28 31 33 33 34 35 37 38 38 37 32 32 29 26 25 25 24 23 20 17 16 18 18 17 16 15 14 13 12 11 12 13 11 11 10 8 7 6
27 27 29 30 31 31 32 32 32 33 35 36 36 37 38 38 39 39 39 40 41 42 39 37 37 38 38 38 38 38 nan 37 36 35 34 34 32 29 28 30 27 26 nan nan nan nan nan 28 30 34 35 36 35 37 39 39 39 37 33 36 28 28 26 25 25 23 21 18 17 19 20 19 18 17 17 15 15 15 15 15 14 12 11 10 8
28 29 29 29 29 31 32 33 33 34 35 37 37 37 38 40 40 41 40 40 42 43 41 39 39 39 40 39 40 40 40 39 38 38 38 37 36 35 32 32 31 nan nan nan nan nan 31 33 33 34 35 36 36 37 38 39 40 38 36 39 35 30 29 28 26 26 24 21 18 18 21 21 19 19 18 18 17 17 18 17 16 15 12 11 11
29 28 29 29 29 31 32 33 34 34 36 37 37 37 38 39 40 41 41 41 43 43 41 42 41 39 39 41 41 43 42 41 40 38 39 40 40 40 40 34 nan nan nan nan nan nan nan nan nan 34 35 35 36 38 38 39 38 37 38 40 41 34 30 30 29 27 27 24 21 19 22 22 21 19 19 19 19 19 19 19 18 18 17 15 14
29 29 28 28 30 31 32 33 34 36 36 37 37 38 38 38 39 40 41 42 43 42 42 43 42 41 40 40 43 43 44 43 42 40 41 41 44 45 43 41 36 nan nan nan nan nan nan nan nan nan 35 35 35 38 39 37 39 39 38 43 42 40 33 32 31 33 32 28 24 24 23 20 14 17 19 19 20 19 20 20 20 20 20 18 17
nan 28 28 30 nan 32 32 33 34 35 36 36 37 38 39 40 40 41 41 42 43 42 43 43 41 41 41 42 43 43 44 44 44 43 42 42 43 45 45 43 41 nan nan nan nan nan nan nan nan nan 38 38 39 41 41 41 39 38 43 43 41 41 36 29 29 31 31 28 25 25 23 18 15 17 21 22 22 21 20 21 21 22 21 21 20
31 30 nan nan 30 32 33 34 34 35 35 36 37 38 39 40 42 42 42 43 43 43 43 44 42 42 43 43 44 44 45 45 45 45 45 nan nan nan nan nan nan nan nan nan nan nan nan nan nan nan nan nan nan 39 41 40 36 35 41 41 41 40 35 30 26 24 26 27 25 24 23 21 20 19 20 22 23 24 23 22 22 23 24 24 23
nan 29 31 32 33 33 35 35 35 35 36 37 38 39 41 41 42 42 42 44 44 43 43 44 43 44 44 43 44 45 45 45 47 47 nan nan nan nan nan nan nan nan nan nan nan nan nan nan nan nan nan nan nan nan 39 41 40 38 41 41 40 37 35 36 29 26 27 27 26 25 24 23 22 19 18 20 21 23 25 25 24 24 25 26 25
33 34 nan nan 34 35 nan nan nan 37 37 38 38 39 40 41 41 42 43 44 44 44 44 45 44 46 46 46 47 47 45 46 47 nan nan nan nan nan nan nan nan nan nan nan nan nan nan nan nan nan nan nan nan nan nan nan nan 34 41 41 39 36 40 43 37 31 29 28 27 26 26 26 23 19 17 18 18 19 22 25 26 26 26 27 28
nan nan nan nan 34 nan 36 38 38 39 39 39 39 40 41 40 41 43 43 44 44 45 46 45 47 47 47 47 47 nan 46 47 nan nan nan nan nan nan nan nan nan nan nan nan nan nan nan nan nan nan nan nan nan nan nan nan nan nan nan 40 40 42 43 43 44 38 32 29 29 28 27 26 24 20 18 17 17 16 17 21 25 26 26 28 29
30 nan nan 32 34 36 37 38 39 40 41 41 41 42 43 42 42 43 43 45 45 45 46 47 49 49 49 48 46 nan 46 nan nan nan nan nan nan nan nan nan nan nan nan nan nan nan nan nan nan nan nan nan nan nan nan nan nan nan nan nan 40 42 43 43 44 46 37 31 28 28 28 28 26 23 20 18 17 16 15 16 21 25 27 28 29
28 nan 32 34 36 38 39 40 41 41 41 41 42 44 44 44 42 42 43 46 47 46 46 47 48 50 50 49 47 nan 46 nan nan nan nan nan nan nan nan nan nan nan nan nan nan nan nan nan nan nan nan nan nan nan nan nan nan nan nan nan 38 41 44 43 42 45 42 36 29 28 29 28 28 26 22 20 18 17 15 15 18 22 25 27 28
nan 31 34 36 38 40 41 40 41 41 41 41 42 44 46 45 44 44 44 46 47 48 48 48 49 50 49 48 nan 46 45 nan nan nan nan nan nan nan nan nan nan nan nan nan nan nan nan nan nan nan nan nan nan nan nan nan nan nan nan nan nan 38 41 43 42 41 43 39 33 29 29 28 28 26 23 21 19 18 16 15 16 19 23 26 nan
nan nan 35 37 40 41 42 41 42 43 43 43 43 45 46 45 45 45 46 47 48 49 50 50 49 49 48 47 nan nan 43 nan nan nan nan nan nan nan nan nan nan nan nan nan nan nan nan nan nan nan nan nan nan nan nan nan nan 38 39 37 nan nan 38 39 42 41 39 40 37 31 30 nan nan nan 23 21 nan 19 17 15 16 18 22 25 27
33 nan nan nan 40 nan nan 43 45 46 45 45 45 46 46 46 45 46 46 47 48 50 51 50 48 48 47 44 42 41 39 nan nan nan nan nan nan nan nan nan nan nan nan nan nan nan nan nan nan nan nan nan nan nan nan nan 38 37 39 39 38 39 40 40 40 41 43 48 50 44 37 34 29 nan 24 23 21 20 19 17 17 18 20 24 25
nan nan nan nan nan nan 44 46 47 46 45 45 45 46 46 46 47 47 47 48 48 49 48 47 46 46 44 42 39 38 37 nan nan nan nan nan nan nan nan nan nan nan nan nan nan nan nan nan nan nan nan nan nan nan nan nan nan nan nan 40 38 40 41 40 38 40 42 45 46 41 39 38 35 33 29 25 24 23 22 nan 19 19 21 22 24
nan nan nan nan nan 44 nan nan nan nan nan nan nan 45 46 47 48 47 47 48 48 46 45 45 45 43 41 39 37 36 35 35 nan nan nan nan nan nan nan nan nan nan nan nan nan nan nan nan nan nan nan nan nan nan nan nan nan nan nan nan 36 37 41 42 38 38 42 45 48 49 43 40 38 34 30 28 25 25 24 24 21 20 20 21 21
38 nan nan nan nan nan nan nan nan nan 46 46 47 48 48 48 48 47 47 47 46 44 43 42 41 40 38 35 33 32 32 33 35 34 nan nan 33 32 nan nan nan 33 34 nan nan nan nan nan nan nan nan nan nan nan nan nan nan nan nan 40 39 38 41 43 41 38 41 45 48 49 46 43 40 40 40 38 34 29 27 24 23 18 19 20 20
41 42 42 42 43 45 nan nan 47 47 nan 46 48 51 51 49 48 47 47 46 45 43 42 40 37 35 33 30 28 27 28 28 29 30 29 29 30 32 nan nan 33 35 36 nan nan nan nan nan nan nan nan nan nan nan nan nan nan nan nan nan nan 38 40 42 41 39 41 44 48 48 45 43 41 40 41 37 34 34 33 29 25 24 22 20 21
43 43 44 45 44 nan nan nan nan nan 45 46 49 49 49 49 49 48 46 44 44 43 42 41 38 34 29 27 27 26 26 27 28 29 28 26 25 27 31 33 34 37 39 nan nan nan nan nan nan nan nan nan nan nan nan nan nan nan nan nan nan 39 37 39 39 40 40 43 46 48 44 42 40 37 38 36 34 34 29 24 19 19 20 22 21
43 45 46 46 45 44 46 nan nan nan 47 48 50 48 47 47 48 47 45 44 43 42 40 40 39 34 28 27 27 26 27 27 28 29 27 24 24 26 29 32 33 36 42 nan nan nan nan nan nan nan nan nan nan nan nan nan nan nan nan nan nan nan nan 37 37 34 41 42 47 48 44 45 42 38 36 34 33 31 26 22 19 19 19 21 23
44 46 47 47 47 47 48 49 49 48 47 47 49 nan nan nan nan 44 41 40 39 39 38 38 36 31 28 27 26 26 27 25 25 27 27 26 26 25 28 33 34 36 36 nan nan nan nan nan nan nan nan nan nan nan nan nan nan nan nan nan nan nan nan nan nan 33 39 43 47 49 47 46 45 41 37 35 34 32 28 23 20 20 20 21 22
45 46 48 48 48 nan nan nan 49 49 48 46 46 47 47 45 nan nan nan 36 37 37 37 36 32 28 26 26 24 23 nan 26 26 26 nan nan nan 28 30 32 34 33 33 nan nan nan nan nan nan nan nan nan nan nan nan nan nan nan nan nan nan nan nan nan 33 32 37 45 45 51 50 47 46 43 38 37 36 32 29 27 23 22 22 21 22
46 48 48 49 49 49 49 50 49 47 46 45 43 nan nan nan nan nan nan 36 38 38 36 33 29 26 26 26 25 23 nan nan nan nan nan nan 27 27 28 29 32 34 nan nan nan nan nan nan nan nan nan nan nan nan nan nan nan nan nan nan nan nan nan nan 35 33 36 43 46 51 47 47 47 43 40 39 37 32 32 30 27 24 23 23 22
47 48 48 50 49 49 49 48 45 44 44 42 nan nan nan nan nan nan nan nan nan 38 35 31 28 26 26 25 24 22 23 nan nan nan nan 27 28 27 27 27 29 nan nan nan nan nan nan nan nan nan nan nan nan nan nan nan nan nan nan nan nan nan nan nan nan 37 36 43 46 49 50 49 49 44 42 43 42 36 34 34 30 25 24 23 23
47 48 49 50 50 nan 48 47 46 nan nan nan nan nan nan nan nan nan nan nan 39 36 34 31 27 26 26 25 23 22 23 23 20 20 24 29 28 27 27 nan nan nan nan nan nan nan nan nan nan nan nan nan nan nan nan nan nan nan nan nan nan nan nan nan nan nan 36 40 42 45 47 46 49 47 45 47 44 39 37 35 33 28 25 25 24
48 48 49 49 49 50 48 46 nan nan nan nan nan nan nan nan nan nan 40 38 35 33 32 28 26 26 25 21 20 22 22 22 21 24 26 27 nan nan nan nan nan nan nan nan nan nan nan nan nan nan nan nan nan nan nan nan nan nan nan nan nan nan nan nan nan nan 36 37 38 42 44 41 46 49 48 51 48 43 37 35 34 33 29 27 24
47 47 48 48 48 49 50 nan 50 nan nan nan nan nan nan nan nan nan nan nan 35 33 30 26 25 26 24 21 18 19 23 23 24 22 25 nan nan nan nan nan nan nan nan nan nan nan nan nan nan nan nan nan nan nan nan nan nan nan nan nan nan nan nan nan 32 36 nan nan 35 38 40 39 38 44 49 53 45 41 38 36 35 34 36 36 32
Wind_Direction
356 353 344 349 349 344 346 347 347 340 337 336 327 318 313 311 311 311 311 311 310 310 312 318 320 314 305 295 289 287 287 291 299 303 310 307 279 265 299 320 331 343 329 322 330 334 340 350 354 354 350 351 352 352 357 357 2 11 20 24 29 34 37 39 38 39 41 40 37 40 43 45 41 39 40 41 43 41 42 43 44 45 49 55 64
351 354 348 352 353 352 354 357 357 350 346 343 329 320 319 316 316 313 306 299 296 298 305 313 314 313 306 301 297 292 288 288 291 295 304 312 304 283 324 325 327 326 329 326 330 329 334 343 350 354 351 351 354 351 349 351 356 2 12 20 27 32 37 43 46 43 44 45 43 43 46 47 45 41 38 40 44 46 46 46 48 51 55 61 67
348 350 349 349 352 352 355 357 358 353 341 337 329 328 326 328 328 327 322 311 304 296 297 303 307 306 302 298 297 292 291 289 288 288 296 306 307 299 285 326 320 318 323 331 325 323 326 332 345 348 352 351 351 353 347 344 348 353 2 12 20 29 34 39 47 49 46 47 48 48 49 49 47 44 40 39 43 48 50 51 51 55 59 65 72
347 351 351 352 352 353 355 355 358 354 348 345 342 333 329 332 335 334 335 330 323 310 304 309 309 307 297 297 294 294 293 293 288 287 291 295 297 294 284 269 321 319 321 326 322 315 314 325 332 337 342 347 348 348 345 341 341 343 350 2 13 22 29 35 42 49 50 49 51 50 52 52 48 46 44 42 42 48 53 55 57 58 62 66 70
356 355 355 354 352 353 357 358 357 353 349 347 342 334 332 333 335 338 339 338 334 331 320 318 317 314 306 301 297 297 295 291 289 290 297 292 286 288 285 280 269 314 319 310 316 309 307 317 320 323 329 335 342 344 341 337 336 334 339 349 1 14 21 28 35 42 49 52 53 54 55 56 53 50 49 47 47 47 52 59 62 63 66 67 67
359 356 354 353 356 357 357 357 351 346 342 343 345 344 348 351 359 357 350 346 347 341 329 324 326 322 316 308 302 299 293 286 286 292 292 288 284 285 287 283 282 277 283 305 302 299 306 308 314 317 317 324 331 337 338 336 334 333 335 338 346 359 15 20 27 35 42 47 52 55 57 59 57 55 52 52 53 52 53 58 63 67 71 72 70
357 354 355 355 356 355 354 353 345 343 342 344 344 346 348 352 355 359 0 358 351 347 344 347 346 339 328 319 310 300 288 280 276 280 286 288 288 285 282 282 281 277 274 271 285 293 291 301 310 310 314 314 320 325 332 334 333 332 335 336 338 345 356 11 19 27 34 38 45 51 56 58 61 59 55 54 57 59 57 58 63 68 73 76 77
352 351 354 355 355 356 353 349 348 348 347 342 340 343 341 345 350 352 354 355 352 351 346 347 344 343 337 332 324 312 296 277 269 272 279 284 287 288 282 276 275 274 273 269 265 268 289 286 290 302 307 310 310 313 318 325 328 329 331 334 337 338 337 347 358 13 27 35 39 44 48 54 57 59 59 57 59 61 60 59 62 66 71 76 78
355 354 356 357 354 352 351 350 350 349 345 342 341 341 341 344 347 347 345 343 343 338 333 332 336 333 331 332 329 323 316 298 277 271 273 276 279 286 286 280 277 278 270 266 263 260 274 290 283 294 292 295 297 299 301 308 320 323 326 330 338 339 336 333 341 351 13 30 36 40 43 49 51 54 58 59 59 63 63 60 61 64 68 73 77
355 357 359 357 354 355 353 349 342 339 338 339 341 339 339 339 341 336 334 335 333 329 328 327 326 321 320 321 321 nan 316 308 298 285 276 274 275 277 281 282 279 275 269 263 260 258 256 267 281 273 274 278 285 288 289 291 299 313 320 326 330 333 337 332 331 340 352 12 26 31 38 42 47 47 51 58 62 65 67 67 65 65 66 70 75
355 358 358 358 356 355 352 348 344 340 336 336 337 340 339 339 340 338 333 334 333 329 330 329 324 321 320 320 315 315 310 307 299 286 277 276 276 274 272 272 273 273 270 264 257 252 250 248 249 248 247 268 273 281 285 288 286 296 309 318 323 326 328 329 323 327 343 354 5 17 27 35 41 44 45 51 63 72 77 75 71 70 68 70 75
355 355 354 353 354 351 348 347 344 340 339 340 343 341 342 342 341 339 337 335 334 332 329 329 325 324 323 317 314 312 312 308 299 295 289 279 275 273 272 268 266 266 266 264 259 252 246 244 245 246 244 240 251 258 272 278 280 284 298 308 316 319 321 320 319 318 329 340 356 3 10 21 31 40 41 41 49 65 77 80 79 77 73 71 72
350 350 351 352 351 352 351 349 344 339 339 343 342 341 341 340 338 338 340 337 332 332 335 334 332 nan 324 321 311 310 312 306 304 nan nan nan 282 279 276 272 266 262 255 252 250 246 245 246 246 246 245 241 235 239 249 261 270 276 284 297 306 312 314 311 312 312 318 325 334 354 1 9 21 31 36 37 37 45 63 75 77 77 78 76 75
350 349 352 352 353 354 352 350 342 340 341 339 339 342 340 340 339 336 334 336 334 332 335 328 329 331 319 313 nan 310 309 302 299 294 292 287 282 279 277 274 271 264 261 263 262 260 257 256 256 250 246 245 240 234 231 235 243 262 266 275 287 299 302 308 306 303 307 313 319 332 351 360 11 20 28 31 33 31 37 59 70 73 78 77 78
348 347 349 353 353 350 355 347 344 343 340 339 338 341 338 334 336 339 336 334 337 335 336 334 334 324 nan nan 311 291 295 292 290 285 283 283 281 278 279 275 268 267 260 256 260 259 253 249 247 248 246 242 240 235 232 232 235 244 249 251 257 269 286 288 292 293 294 295 302 310 329 342 356 13 24 28 32 29 29 37 55 66 74 78 79
344 349 350 348 346 347 343 339 349 342 341 339 338 323 320 331 331 328 329 335 330 330 330 328 327 321 324 323 323 312 297 293 279 280 280 282 285 277 261 254 251 250 252 261 262 260 257 255 252 247 244 246 247 244 231 228 230 235 239 243 243 244 249 265 280 286 283 283 279 279 284 306 322 335 4 19 26 30 36 41 46 59 66 77 81
334 330 329 331 333 334 336 337 338 338 337 336 327 323 332 328 328 327 329 331 332 330 328 328 329 336 330 324 321 318 316 303 277 283 281 272 269 266 272 272 267 263 262 260 261 260 258 254 251 251 249 248 248 249 250 240 231 228 231 236 239 238 234 235 250 264 270 273 269 262 257 259 275 293 292 305 342 359 25 48 62 74 77 89 95
330 329 328 327 328 327 330 331 331 332 330 327 323 321 324 325 325 327 328 329 327 326 329 329 334 335 332 332 330 330 323 312 295 291 281 nan 279 270 268 269 268 268 266 262 259 257 256 252 252 251 250 247 245 245 244 244 246 244 235 232 232 236 234 231 230 233 245 251 258 258 251 242 241 246 259 268 272 288 316 348 80 86 93 105 125
325 329 328 328 328 327 325 327 327 327 328 325 323 322 323 323 322 325 328 324 322 324 329 332 329 331 331 336 326 326 317 313 312 298 284 283 284 274 266 263 266 268 267 266 263 260 256 253 251 250 252 250 247 245 245 243 242 239 237 234 231 227 231 232 228 224 225 230 238 248 250 243 234 227 228 238 246 254 244 238 220 186 172 183 205
326 326 326 323 323 323 321 321 321 318 318 318 319 324 322 322 323 324 324 324 325 326 327 328 326 330 328 328 327 326 324 326 327 318 303 290 279 289 290 279 271 271 269 267 265 264 261 257 255 251 249 247 247 247 247 247 246 242 239 235 234 231 233 224 223 228 223 222 225 232 239 242 238 231 222 218 234 238 230 224 222 219 209 204 201
322 320 321 322 322 319 315 314 314 315 314 314 314 314 316 320 321 321 322 324 324 325 323 323 324 327 327 326 323 323 321 322 321 314 308 298 294 286 280 284 282 277 271 270 267 263 262 260 257 256 253 248 247 247 247 248 248 245 242 241 238 235 236 243 238 219 223 223 219 222 227 232 234 234 232 226 227 232 235 224 226 225 225 214 222
316 319 318 320 316 313 313 314 312 312 311 311 311 311 312 311 314 319 321 323 323 321 320 321 321 324 325 326 322 320 316 313 312 310 308 308 301 286 280 271 271 281 275 267 263 263 262 261 257 253 251 249 248 248 250 249 248 245 244 246 246 246 240 237 239 243 229 219 223 218 221 225 225 226 229 233 230 229 231 232 234 239 235 232 231
314 314 315 315 315 315 315 315 313 313 313 311 312 314 314 313 314 313 315 316 316 316 316 317 317 317 318 319 321 319 318 314 311 309 306 300 293 291 285 280 276 271 279 277 271 267 262 261 262 259 257 254 249 247 249 250 248 246 248 249 249 251 248 243 240 241 254 244 229 227 224 222 222 223 226 226 233 234 228 227 230 236 236 237 238
312 312 313 311 312 312 313 314 315 315 314 313 313 313 313 313 312 312 313 313 314 313 313 313 315 315 315 315 316 316 315 315 311 307 302 301 297 290 284 280 277 280 nan nan nan nan nan 265 264 263 260 256 251 248 246 247 247 249 246 246 246 247 248 248 246 244 241 240 240 235 231 225 222 224 224 225 227 233 235 229 227 225 226 229 221
311 312 312 308 311 312 313 314 315 316 316 314 313 313 314 313 312 311 311 312 313 313 311 313 313 312 312 312 312 312 nan 313 310 305 302 299 295 289 285 283 279 270 nan nan nan nan nan 268 264 262 261 258 254 251 249 247 245 245 247 244 250 249 248 248 246 243 240 238 235 239 234 230 228 227 227 227 227 228 232 235 231 221 213 214 210
312 310 311 309 311 314 316 316 315 315 316 315 314 315 315 314 312 311 311 312 313 313 313 314 312 312 311 311 312 313 313 310 308 305 301 296 292 290 284 280 278 nan nan nan nan nan 272 274 268 263 261 259 255 251 250 249 244 244 248 245 243 245 244 245 244 242 246 248 246 246 238 228 232 233 230 230 230 229 228 228 228 226 216 205 207
313 312 310 312 316 315 314 314 315 315 314 314 314 315 314 313 313 312 312 313 315 313 315 314 313 312 312 313 314 313 312 310 306 304 301 298 295 291 286 275 nan nan nan nan nan nan nan nan nan 265 262 258 256 253 250 248 247 247 248 246 242 244 244 244 245 247 250 251 253 254 249 232 221 231 236 235 234 233 232 231 229 227 221 213 208
316 313 314 315 314 313 313 315 317 316 315 315 316 316 316 315 314 314 314 314 314 314 315 314 313 314 314 314 312 313 311 309 306 303 299 296 295 292 289 286 274 nan nan nan nan nan nan nan nan nan 263 259 256 255 251 249 246 246 246 244 243 242 245 245 247 250 253 251 254 258 256 254 236 226 235 238 237 236 236 235 234 232 229 224 217
nan 314 315 314 nan 315 317 317 317 317 317 317 317 317 317 316 316 316 316 316 316 316 316 315 315 315 314 314 314 313 309 307 304 302 299 297 293 291 291 289 283 nan nan nan nan nan nan nan nan nan 259 257 252 251 249 245 244 246 244 245 244 243 245 250 250 250 251 249 248 256 259 261 257 238 233 234 236 236 236 237 237 236 233 231 226
315 314 nan nan 315 317 316 316 316 317 318 318 318 319 319 318 317 317 317 317 317 317 317 317 317 316 315 314 313 311 308 305 304 302 300 nan nan nan nan nan nan nan nan nan nan nan nan nan nan nan nan nan nan 246 247 246 242 242 244 244 244 243 244 248 249 247 247 250 251 251 257 261 257 248 243 240 237 236 234 235 236 237 236 235 232
nan 315 316 317 317 315 315 315 316 317 318 319 320 320 319 317 317 317 318 317 318 318 319 318 318 317 315 315 313 309 306 305 303 302 nan nan nan nan nan nan nan nan nan nan nan nan nan nan nan nan nan nan nan nan 243 244 242 240 240 240 239 242 243 240 243 244 248 253 255 255 255 255 253 250 247 245 242 240 237 233 233 235 238 238 237
316 317 nan nan 318 319 nan nan nan 320 318 318 318 318 317 318 318 318 318 318 319 320 319 319 318 317 316 315 312 308 305 303 301 nan nan nan nan nan nan nan nan nan nan nan nan nan nan nan nan nan nan nan nan nan nan nan nan 236 239 238 237 237 238 236 238 241 246 249 251 251 250 249 249 246 244 245 246 247 244 239 234 234 237 239 239
nan nan nan nan 322 nan 323 321 321 320 319 319 319 319 319 319 319 319 318 319 320 320 319 319 319 318 317 314 310 nan 305 304 nan nan nan nan nan nan nan nan nan nan nan nan nan nan nan nan nan nan nan nan nan nan nan nan nan nan nan 236 235 236 237 238 236 237 241 243 244 244 244 246 247 247 247 248 250 252 251 247 241 236 236 238 239
319 nan nan 324 326 327 325 324 323 323 323 323 322 321 320 320 320 319 320 320 320 320 319 320 319 318 316 313 309 nan 305 nan nan nan nan nan nan nan nan nan nan nan nan nan nan nan nan nan nan nan nan nan nan nan nan nan nan nan nan nan 236 236 236 238 238 234 236 239 240 238 237 239 242 245 248 250 253 256 254 252 246 240 237 238 239
319 nan 324 326 328 329 329 328 327 326 326 325 323 321 321 321 321 321 322 321 320 320 319 319 319 317 314 312 309 nan 306 nan nan nan nan nan nan nan nan nan nan nan nan nan nan nan nan nan nan nan nan nan nan nan nan nan nan nan nan nan 238 237 236 237 238 235 232 235 238 237 236 236 238 241 245 249 255 259 260 256 252 246 241 238 239
nan 321 324 327 328 329 330 329 328 326 325 325 324 322 322 322 323 323 322 322 321 321 321 320 319 316 314 311 nan 309 308 nan nan nan nan nan nan nan nan nan nan nan nan nan nan nan nan nan nan nan nan nan nan nan nan nan nan nan nan nan nan 236 236 235 237 235 232 232 235 237 236 236 237 238 240 245 251 256 258 260 259 256 249 243 nan
nan nan 324 326 327 328 329 328 327 325 326 325 325 323 322 322 324 324 323 323 322 322 322 320 319 316 314 312 nan nan 310 nan nan nan nan nan nan nan nan nan nan nan nan nan nan nan nan nan nan nan nan nan nan nan nan nan nan 237 239 240 nan nan 236 236 234 234 231 230 232 236 237 nan nan nan 236 242 nan 252 254 258 263 262 256 250 245
320 nan nan nan 325 nan nan 326 325 323 322 322 323 323 324 324 324 323 323 322 322 322 321 319 317 315 314 313 312 310 311 nan nan nan nan nan nan nan nan nan nan nan nan nan nan nan nan nan nan nan nan nan nan nan nan nan 234 234 236 237 236 235 235 236 235 234 233 229 228 229 231 231 232 nan 234 236 238 244 251 257 263 265 260 253 249
nan nan nan nan nan nan 326 324 323 321 321 320 321 322 324 324 324 323 323 322 322 321 320 320 318 315 314 312 311 311 313 nan nan nan nan nan nan nan nan nan nan nan nan nan nan nan nan nan nan nan nan nan nan nan nan nan nan nan nan 234 232 234 235 237 234 235 234 229 226 230 232 234 236 235 235 238 238 242 248 nan 261 270 265 256 251
nan nan nan nan nan 327 nan nan nan nan nan nan nan 322 323 324 323 322 322 322 321 321 319 318 317 315 314 312 312 312 315 314 nan nan nan nan nan nan nan nan nan nan nan nan nan nan nan nan nan nan nan nan nan nan nan nan nan nan nan nan 229 231 233 234 234 234 234 230 224 224 226 229 230 233 236 240 244 246 250 252 260 269 272 261 253
322 nan nan nan nan nan nan nan nan nan 321 322 320 321 322 322 321 322 322 322 322 320 318 317 315 314 312 312 312 313 314 317 320 316 nan nan 304 306 nan nan nan 304 301 nan nan nan nan nan nan nan nan nan nan nan nan nan nan nan nan 236 228 227 231 231 229 232 233 230 223 223 226 230 230 231 233 234 238 244 245 252 250 267 270 260 253
325 326 328 328 328 327 nan nan 324 323 nan 321 322 324 322 321 322 322 322 322 321 320 318 317 315 313 312 311 311 318 320 319 320 321 317 314 316 313 nan nan 312 309 306 nan nan nan nan nan nan nan nan nan nan nan nan nan nan nan nan nan nan 224 228 228 226 230 235 230 223 222 224 229 232 231 233 234 238 247 242 242 243 252 256 256 251
326 327 328 329 329 nan nan nan nan nan 322 321 324 325 325 326 321 320 322 323 322 321 320 318 318 316 312 310 307 306 307 308 307 307 308 313 317 322 328 327 322 316 312 nan nan nan nan nan nan nan nan nan nan nan nan nan nan nan nan nan nan 221 226 228 223 226 234 232 223 220 221 228 232 230 231 233 238 242 237 234 247 257 256 256 255
327 327 328 329 329 328 326 nan nan nan 320 323 325 325 325 326 324 322 323 324 324 323 320 318 317 316 314 310 308 305 306 308 310 307 307 314 322 329 331 327 328 329 326 nan nan nan nan nan nan nan nan nan nan nan nan nan nan nan nan nan nan nan nan 224 223 224 231 234 224 219 216 225 229 227 226 229 232 231 229 233 248 254 253 252 252
327 327 328 327 326 326 324 321 320 320 319 321 324 nan nan nan nan 325 323 324 325 324 321 318 318 318 312 306 307 308 307 317 315 310 310 311 318 324 327 327 331 331 329 nan nan nan nan nan nan nan nan nan nan nan nan nan nan nan nan nan nan nan nan nan nan 219 227 232 224 217 215 222 229 226 223 224 225 224 226 234 247 254 254 251 249
327 327 326 325 323 nan nan nan 320 319 317 319 324 326 327 325 nan nan nan 328 327 326 323 320 319 316 308 307 309 305 nan 311 314 316 nan nan nan 318 319 322 323 326 328 nan nan nan nan nan nan nan nan nan nan nan nan nan nan nan nan nan nan nan nan nan 214 214 221 229 224 220 215 220 227 225 220 219 223 226 231 239 250 254 255 254 252
326 326 324 321 320 321 323 322 319 317 316 320 324 nan nan nan nan nan nan 329 329 327 324 320 318 312 307 309 308 308 nan nan nan nan nan nan 319 321 324 325 324 324 nan nan nan nan nan nan nan nan nan nan nan nan nan nan nan nan nan nan nan nan nan nan 208 209 216 224 223 221 214 218 225 222 217 219 226 232 237 240 253 254 255 255 254
322 320 319 318 319 321 323 322 318 315 315 312 nan nan nan nan nan nan nan nan nan 324 323 321 316 310 309 309 307 308 310 nan nan nan nan 316 319 322 325 326 323 nan nan nan nan nan nan nan nan nan nan nan nan nan nan nan nan nan nan nan nan nan nan nan nan 211 214 222 223 222 217 214 220 220 215 220 229 236 240 236 245 255 253 254 254
321 319 318 319 320 nan 322 319 314 nan nan nan nan nan nan nan nan nan nan nan 321 320 319 317 312 308 308 306 307 312 312 311 319 313 305 309 318 323 325 nan nan nan nan nan nan nan nan nan nan nan nan nan nan nan nan nan nan nan nan nan nan nan nan nan nan nan 214 223 220 221 219 214 218 219 217 222 230 235 237 237 236 244 249 249 251
319 319 319 320 320 320 318 309 nan nan nan nan nan nan nan nan nan nan 313 319 321 316 312 312 310 306 306 318 320 316 316 318 318 304 309 315 nan nan nan nan nan nan nan nan nan nan nan nan nan nan nan nan nan nan nan nan nan nan nan nan nan nan nan nan nan nan 212 218 219 223 216 212 218 219 219 221 225 227 234 235 237 238 242 241 248
317 316 317 318 316 312 308 nan 303 nan nan nan nan nan nan nan nan nan nan nan 323 315 307 307 305 303 303 307 320 322 318 322 313 308 312 nan nan nan nan nan nan nan nan nan nan nan nan nan nan nan nan nan nan nan nan nan nan nan nan nan nan nan nan nan 206 208 nan nan 217 225 215 211 218 217 221 219 218 222 231 238 240 240 237 235 235